Location: Bernadets
(43.3537°N, 0.3167°E)
Time: 23:17:11
(UTC+00:00)

IRS-P2 Rocket - Pass Details

Date: 24 October 2021
Orbit: 794 x 876 km, 99.1° (Epoch: 06 December)

Event Time Altitude Azimuth Distance (km) Brightness Sun altitude
Exits shadow 19:22:36 81° 132° (SE) 813 4.4 -26.3°
Maximum altitude 19:22:51 85° 75° (ENE) 806 4.4 -26.3°
Drops below altitude 10° 19:28:05 10° 347° (NNW) 2,373 7.3 -27.3°
Sets 19:30:25 0° 347° (NNW) 3,307 8.1 -27.7°
